Weather History for KLAA - September, 2011

Change the Weather History Date:

Monday, September 12, 2011

  Actual Average Record
Temperature  
Mean Temperature 73 °F 68 °F  
Max Temperature 94 °F 84 °F 101 °F (1939)
Min Temperature 51 °F 52 °F 34 °F (1944)
Degree Days  
Heating Degree Days 0 1  
Month to date heating degree days 10 11  
Since 1 July heating degree days 10 16  
Cooling Degree Days 8 5  
Month to date cooling degree days 58 72  
Year to date cooling degree days 1480 1061  
Growing Degree Days 23 (Base 50)    
Moisture  
Dew Point 40 °F    
Average Humidity 40    
Maximum Humidity 66    
Minimum Humidity 14    
Precipitation  
Precipitation 0.00 in 0.05 in 1.05 in (1982)
Month to date precipitation 0.22 0.60  
Year to date precipitation 12.97  
Snow  
Snow 0.00 in - - ()
Month to date snowfall 0.0  
Snow Depth 0.00 in    
Sea Level Pressure  
Sea Level Pressure 29.92 in    
Wind  
Wind Speed 5 mph (West)    
Max Wind Speed 17 mph    
Max Gust Speed 22 mph    
Visibility 10 miles    
Events      
T = Trace of Precipitation, MM = Missing Value Source: NWS Daily Summary

Daily Weather History Graph

Daily Weather History Graph

Search for Another Location

Airport or City:

Trip Planner

Search our weather history database for the weather conditions in past years. The results will help you decide how hot, cold, wet, or windy it might be!

Date:

Astronomy

Sep. 12, 2011 Rise Set
Actual Time 6:29 AM MDT 7:03 PM MDT
Civil Twilight 6:03 AM MDT 7:30 PM MDT
Nautical Twilight 5:31 AM MDT 8:01 PM MDT
Astronomical Twilight 4:59 AM MDT 8:33 PM MDT
Moon 6:55 PM MDT (9/12) 6:47 AM MDT (9/12)
Length of Visible Light 13h 27m
Length of Day
12h 34m
Full, 100% of the Moon is Illuminated
Sep 12
Full
Sep 20
Last Quarter
Sep 27
New
Oct 3
First Quarter
Oct 11
Full

Hourly Weather History & Observations

Time (MDT) Temp. Dew Point Humidity Pressure Visibility Wind Dir Wind Speed Gust Speed Precip Events Conditions
12:53 AM 66.0 °F 43.0 °F 43% 29.91 in 10.0 mi SSW 9.2 mph - N/A   Clear
1:53 AM 62.1 °F 43.0 °F 50% 29.91 in 10.0 mi Calm Calm - N/A   Clear
2:53 AM 59.0 °F 42.1 °F 53% 29.90 in 10.0 mi WSW 4.6 mph - N/A   Clear
3:53 AM 55.9 °F 42.1 °F 60% 29.91 in 10.0 mi WSW 6.9 mph - N/A   Clear
4:53 AM 57.0 °F 43.0 °F 59% 29.93 in 10.0 mi Calm Calm - N/A   Clear
5:53 AM 53.1 °F 42.1 °F 66% 29.94 in 10.0 mi West 6.9 mph - N/A   Clear
6:53 AM 57.0 °F 41.0 °F 55% 29.97 in 10.0 mi West 9.2 mph - N/A   Clear
7:53 AM 64.0 °F 39.9 °F 41% 29.97 in 10.0 mi West 12.7 mph - N/A   Clear
8:53 AM 71.1 °F 41.0 °F 34% 29.97 in 10.0 mi WNW 10.4 mph - N/A   Clear
10:53 AM 82.9 °F 39.9 °F 22% 29.94 in 10.0 mi NNE 3.5 mph - N/A   Clear
11:53 AM 87.1 °F 42.1 °F 21% 29.92 in 10.0 mi NNE 3.5 mph - N/A   Clear
2:53 PM 93.0 °F 37.9 °F 15% 29.88 in 10.0 mi Variable 5.8 mph - N/A   Clear
3:53 PM 93.0 °F 37.0 °F 14% 29.87 in 10.0 mi Calm Calm - N/A   Clear
4:53 PM 90.0 °F 41.0 °F 18% 29.88 in 10.0 mi North 6.9 mph - N/A   Clear
5:53 PM 89.1 °F 37.0 °F 16% 29.89 in 10.0 mi Calm Calm - N/A   Clear
6:53 PM 86.0 °F 39.9 °F 20% 29.89 in 10.0 mi Calm Calm - N/A   Clear
7:53 PM 78.1 °F 41.0 °F 27% 29.91 in 10.0 mi ENE 4.6 mph - N/A   Clear
9:53 PM 64.0 °F 37.9 °F 38% 29.93 in 10.0 mi SSW 4.6 mph - N/A   Clear
10:53 PM 63.0 °F 37.0 °F 38% 29.92 in 10.0 mi SSW 3.5 mph - N/A   Clear
11:53 PM 59.0 °F 36.0 °F 42% 29.92 in 10.0 mi SW 4.6 mph - N/A   Clear